Regional Weather Roundup
Issued by NWS Grand Forks, ND

Home | Current Version | Previous Version | Graphics & Text | Print | Product List | Glossary On
Versions: 1 2 3 4 5 6 7 8 9 10 11 12 13 14 15 16 17 18 19 20 21 22 23 24 25 26 27 28 29 30 31 32 33 34 35 36 37 38 39 40 41 42 43 44 45 46 47 48 49 50
000
ASUS43 KFGF 161431
RWRFGF
PRAIRIE TO PINES  WEATHER ROUNDUP
NATIONAL WEATHER SERVICE EASTERN NORTH DAKOTA/GRAND FORKS ND
800 AM CST SAT DEC 16 2017

 **SATELLITE DATA USED TO AUGMENT SKY COVER AT AUTOMATED STATIONS**
 *****  WEATHER ACROSS EASTERN NORTH DAKOTA  *****

CITY           SKY/WX    TMP DP  RH WIND       PRES   REMARKS
GRAND FORKS    CLOUDY    21  18  88 E3        29.79R
GRAND FRKS AFB FLURRIES  21  18  86 S3        29.79R
GRAND FRKS NWS   N/A    N/A N/A N/A SE3         N/A
DEVILS LAKE    FAIR      25  23  93 CALM      29.76R
FARGO          CLOUDY    27  23  85 SE5       29.79R WCI  22
WAHPETON ARPT  CLOUDY    27  23  86 CALM      29.81R
$$

 ***** WEATHER ACROSS CENTRAL AND WESTERN NORTH DAKOTA  *****

CITY           SKY/WX    TMP DP  RH WIND       PRES   REMARKS
BISMARCK       FAIR      35  32  88 NW9       29.83R
MINOT          CLOUDY    37  31  78 W15       29.80R
JAMESTOWN      CLOUDY    34  32  92 NW7       29.75R
MINOT AFB      CLOUDY    35  30  83 NW15      29.77R
GARRISON         N/A     33  30  88 W10       29.81R WCI  25
WILLISTON      CLOUDY    28  18  64 W6        29.88R WCI  22
DICKINSON      FAIR      28  25  88 W9        29.83R WCI  19
HETTINGER      FAIR      30  27  88 NW10      29.88R WCI  21
$$

 *****  OTHER AIRPORT OBSERVATIONS IN OUR AREA  *****

CITY           SKY/WX    TMP DP  RH WIND       PRES   REMARKS
WALHALLA       LGT SNOW  18  18 100 SE6       29.78S WCI   9
GRAFTON AIRPOR CLOUDY    19  18  93 SE7       29.81S WCI  10
VALLEY CITY AR CLOUDY    27  27 100 CALM      29.79R FOG
CANDO          PTSUNNY   21  21 100 W3        29.77R FOG
CAVALIER APRT  CLOUDY    18  18 100 SE6       29.79R WCI   9
GWINNER          N/A     28  28 100 CALM      29.79R FOG
SHEYENNE NWR     N/A     27  27 100 N5        29.95  WCI  22
ROLLA          PTSUNNY   28  28 100 NW16      29.74R WCI  17
 ***** THE ABOVE OBSERVATIONS ARE NON NWS ARE NOT QUALITY
       CONTROLLED AND MAY MIS-REPORT RAIN FOR SNOW...
$$

  *****  WEATHER ACROSS NORTHERN MINNESOTA  *****

CITY           SKY/WX    TMP DP  RH WIND       PRES   REMARKS
FLAG ISLAND    LGT SNOW   1  -2  85 E5        29.86S WCI  -8
WARROAD        LGT SNOW   7   3  85 E12       29.84R WCI  -9
ROSEAU         LGT SNOW  10   5  79 E13       29.83R WCI  -5
HALLOCK        LGT SNOW  16  12  86 E6        29.81R WCI   7
THF RVR FALLS  CLOUDY    16  13  88 E10       29.80R WCI   4
BAUDETTE       FLURRIES   5   1  83 E12       29.83R WCI -11
WASKISH        CLOUDY    10   7  85 E6        29.84R WCI   1
CROOKSTON      CLOUDY    21  19  93 SE5       29.82R WCI  15
STEPHEN NDAWN    N/A     18  12  79 SE10        N/A  WCI   6
GREENBUSH NDAW   N/A     12   9  85 E8          N/A  WCI   1
$$
  *****  WEATHER ACROSS CENTRAL AND WEST MINNESOTA  *****

CITY           SKY/WX    TMP DP  RH WIND       PRES   REMARKS
FOSSTON        CLOUDY    18  16  93 SE5       29.79R WCI  11
BEMIDJI        CLOUDY    16  13  87 E5        29.80R WCI   9
PARK RAPIDS    CLOUDY    19  15  84 E6        29.77R WCI  11
ELBOW LAKE     CLOUDY    24  23  94 E7        29.78R FOG     WCI  16
WADENA         CLOUDY    19  18  93 E3        29.79R
DETROIT LAKES  CLOUDY    23  21  93 SE8       29.80R WCI  14
MOORHEAD       CLOUDY    25  21  86 CALM      29.80R
FERGUS FALLS   CLOUDY    23  21  93 E5        29.81R WCI  17
MORRIS MN      CLOUDY    27  25  93 E7        29.77R FOG     WCI  19
STAPLES        CLOUDY    19  16  86 E3        29.80R
$$
  *****  WEATHER ELSEWHERE ACROSS MINNESOTA  *****

CITY           SKY/WX    TMP DP  RH WIND       PRES   REMARKS
DULUTH         CLOUDY    17  11  77 SE15      29.84R WCI   2
INTRNTL FALLS  CLOUDY     0  -5  79 E8        29.88R WCI -14
ELY            CLOUDY     1  -2  85 CALM      29.88R
CLOQUET        CLOUDY    16   7  67 E8        29.83R WCI   5
WHEATON        CLOUDY    27  25  93 CALM      29.80R
BRAINERD       LGT SNOW  20  15  81 E5        29.81R WCI  13
HIBBING        CLOUDY    13  10  88 E3        29.83R
ALEXANDRIA     CLOUDY    22  21  96 E8        29.76R FOG     WCI  12
SAINT CLOUD    CLOUDY    21  19  92 E7        29.79R WCI  12
MINNEAPOLIS    CLOUDY    25  24  96 E9        29.78R WCI  15
$$

  *****  WEATHER ACROSS SOUTH DAKOTA  *****

CITY           SKY/WX    TMP DP  RH WIND       PRES   REMARKS
SIOUX FALLS    FAIR      30  25  81 S3        29.76R
BROOKINGS      FAIR      26  22  84 NW5       29.77R WCI  20
WATERTOWN      MOCLDY    33  30  88 NW8       29.74R
HURON          MOCLDY    32  28  85 NW12      29.79R WCI  23
SISSETON         N/A     34  30  85 NW12      29.76R
ABERDEEN       CLOUDY    34  33  96 SW5       29.79R
MITCHELL       FAIR      32  25  75 NW7       29.81R
PIERRE         FAIR      33  28  81 NW12      29.83R WCI  24
MOBRIDGE       MOCLDY    37  32  82 NW7       29.83R
RAPID CITY     CLOUDY    35  27  72 N15       29.88R
$$

  *****  SOME WEATHER IN NEARBY STATES *****

CITY           SKY/WX    TMP DP  RH WIND       PRES   REMARKS
GLASGOW MT     FAIR      23  21  92 W7        29.94R WCI  15
GREAT FALLS MT LGT SNOW  30  27  88 E8        29.95R FOG     WCI  22
CHEYENNE WY    CLOUDY    40   7  25 N15       29.80S
SCOTTSBLUFF NE FAIR      32  12  43 W6        29.83R
OMAHA NE       FAIR      31  21  66 SE5       29.79R
DES MOINES IA  FAIR      34  24  67 SW9       29.78S
DAVENPORT IA   FAIR      33  24  69 SW8       29.84R
CHICAGO IL     FAIR      34  24  67 S9        29.85S
EAU CLAIRE WI  CLOUDY    21  17  84 NE8       29.82R WCI  11
LA CROSSE WI   MOCLDY    27  25  92 W6        29.79R WCI  20
$$

  *****  SOME NATIONAL WEATHER *****

CITY           SKY/WX    TMP DP  RH WIND       PRES   REMARKS
LA GUARDIA NY  PTSUNNY   30  17  58 SW16G25   30.06R WCI  19
RALEIGH NC     FAIR      32  24  72 CALM      30.27R
ATLANTA GA     FAIR      32  26  78 W8        30.28R WCI  25
NEW ORLEANS LA PTSUNNY   47  37  68 NE7       30.29R
OKLAHOMA CITY  FAIR      33  23  66 S8        30.00F
ALBUQUERQUE NM FAIR      26  15  63 SE3       29.95F
SALT LAKE CITY CLOUDY    32  29  88 CALM      29.90R FOG
LOS ANGELES CA CLOUDY    57  50  77 E5        29.77R
BOISE ID       CLOUDY    24  22  91 W8        30.09S WCI  15
SEATTLE WA     FAIR      38  37  97 SE6       30.30R
$$

*** WEATHER ACROSS MANITOBA...SASKATCHEWAN AND ONTARIO ***
                ***ONTARIO***

CITY           SKY/WX    TMP DP  RH WIND       PRES   REMARKS
GERALDTON      PTCLDY   -29 -36  68 VRB2      30.03R
THUNDER BAY    MOCLDY   -13 -17  84 SW8       30.06R WCI -30
SIOUX LOOKOUT  CRYSTALS -15 -18  84 E3        29.96R
TORONTO        FLURRIES  25  16  68 W14       29.91R WCI  13
BIG TROUT LK   CLEAR    -24 -29  76 W5        30.05R WCI -38
PICKLE LAKE    PTCLDY   -33 -40  68 VRB2      30.00R
DRYDEN         CLOUDY   -11 -15  84 NE6       29.91R WCI -25
KENORA         MOCLDY    -4  -8  84 E12       29.87R WCI -22
$$
                *** MANITOBA***

CITY           SKY/WX    TMP DP  RH WIND       PRES   REMARKS
BRANDON        CLOUDY    14  12  92 N3        29.76R
DAUPHIN        CLOUDY    14  10  85 W7        29.77R WCI   4
ISLAND LAKE    MOCLDY   -18 -24  76 SE9       29.99S WCI -38
PILOT MOUND      N/A     23  23 100 W5          N/A  WCI  17
THE PAS        FLURRIES   5   0  78 SE10      29.76R WCI -10
THOMPSON       MOCLDY   -11 -17  77 VRB2      29.88R
WINNIPEG       FRZ DRZL   9   5  85 SE12      29.84R DRFTSNOWWCI  -6
LYNN LAKE      CLOUDY    -8 -11  84 S6        29.74S WCI -21
CHURCHILL      PTCLDY   -26 -33  68 SW5       30.00S WCI -40
GILLAM         MOCLDY   -20 -27  69 CALM      29.99S
$$
                ***SASKATCHEWAN***

CITY           SKY/WX    TMP DP  RH WIND       PRES   REMARKS
ESTEVAN        CLOUDY    27  25  93 W12       29.81R WCI  16
KINDERSLEY     PTCLDY    21  14  73 W10       29.84S WCI  10
LLOYDMINSTER   FLURRIES  27  19  74 W16G22    29.75R WCI  14
PRINCE ALBERT  PTCLDY     7   3  85 W6        29.70R WCI  -3
REGINA         PTCLDY    25  21  86 W13       29.80R WCI  13
YORKTON        FOG       21  19  93 S7        29.73R VSB 1/2 WCI  13
N. BATTLEFORD  PTCLDY    27  18  69 W9        29.77R WCI  17
LA RONGE       FLURRIES   7   5  92 E3        29.69R
SASKATOON      CLEAR     23  18  80 W12       29.76R WCI  12
SWIFT CURRENT  CLEAR     19  14  79 W13G18    29.85S WCI   7
$$
NOTE: THESE ARE AUTOMATED STATIONS WITH LIMITED QUALITY CONTROL
      "FAIR" INDICATES FEW OR NO CLOUDS BELOW 12,000 FEET WITH NO
      SIGNIFICANT WEATHER AND/OR OBSTRUCTIONS TO VISIBILITY.
      SKY/WX - SKY CONDITION AND SIGNIFICANT WEATHER.
      TMP - AIR TEMPERATURE.    DP   - DEWPOINT TEMPERATURE.
      RH  - RELATIVE HUMIDITY.  PRES - PRESSURE.
      HX  - HEAT INDEX.         WCI  - WIND CHILL INDEX.
$



USA.gov is the U.S. government's official web portal to all federal, state and local government web resources and services.